FW5216 Weather Reports


Display with metric or nautical units.
time (UTC)temp
F
wind
direction
speed
MPH
gust
MPH
rain 1hr
in
rain 24hr
in
rain mn
in
humidity
%
barometer
mb
20260505120043 61 103 0.0 12.0 0.00 0.05 0.00 59 1005.4
20260505114531 60 113 0.0 15.0 0.00 0.05 0.00 59 1005.4
20260505113030 60 95 0.0 14.0 0.00 0.05 0.00 59 1005.3
20260505111528 61 141 1.0 13.0 0.00 0.05 0.00 58 1005.4
20260505101524 60 103 0.0 10.0 0.00 0.05 0.00 58 1004.9
20260505100024 60 90 0.0 14.0 0.00 0.05 0.00 58 1005.0
20260505094520 60 87 0.0 13.0 0.00 0.05 0.00 57 1005.2
20260505093019 60 60 1.0 13.0 0.00 0.05 0.00 56 1005.2
20260505091517 61 175 0.0 9.0 0.00 0.05 0.00 55 1005.0
20260505090017 61 76 0.0 13.0 0.00 0.05 0.00 55 1005.0
20260505084534 61 61 0.0 1.0 0.00 0.05 0.00 55 1005.3
20260505083014 61 118 0.0 17.0 0.00 0.05 0.00 54 1005.1
20260505081518 61 101 0.0 8.0 0.00 0.05 0.00 54 1005.1
20260505080013 61 78 0.0 6.0 0.00 0.05 0.00 54 1005.3
20260505074512 61 150 1.0 13.0 0.00 0.05 0.00 53 1005.1
20260505073012 61 106 0.0 6.0 0.00 0.05 0.00 53 1005.1
20260505071511 61 113 0.0 0.0 0.00 0.05 0.00 53 1005.0
20260505070010 61 124 2.0 18.0 0.00 0.05 0.00 52 1005.2
20260505064509 61 101 0.0 13.0 0.00 0.05 0.00 52 1005.2
20260505063009 61 141 2.0 11.0 0.00 0.05 0.00 52 1005.2
20260505061513 61 70 0.0 0.0 0.00 0.05 0.00 52 1005.0
20260505060009 61 134 0.0 0.0 0.00 0.05 0.00 52 1004.9
20260505054507 61 86 0.0 4.0 0.00 0.05 0.00 52 1005.2
20260505053006 61 109 0.0 0.0 0.00 0.05 0.00 53 1005.3
20260505051503 60 150 0.0 0.0 0.00 0.05 0.00 53 1005.4
20260505041558 61 105 0.0 0.0 0.00 0.05 0.00 54 1005.6
20260505040056 61 77 0.0 0.0 0.00 0.05 0.00 53 1005.7
20260505034614 62 84 0.0 0.0 0.00 0.05 0.05 53 1005.6
20260505033057 62 146 0.0 0.0 0.00 0.05 0.05 52 1005.6
20260505031555 62 106 0.0 0.0 0.00 0.05 0.05 51 1005.7
20260505030053 63 117 0.0 0.0 0.00 0.05 0.05 50 1005.7
20260505024552 63 110 0.0 1.0 0.00 0.05 0.05 49 1005.8
20260505023052 63 112 0.0 2.0 0.00 0.05 0.05 49 1005.8
20260505021549 62 91 0.0 1.0 0.00 0.05 0.05 51 1005.9
20260505020049 62 109 0.0 0.0 0.00 0.05 0.05 53 1006.1
20260505014547 62 84 0.0 0.0 0.00 0.05 0.05 53 1005.9
20260505013046 61 107 0.0 0.0 0.00 0.05 0.05 53 1005.9
20260505011604 61 90 0.0 0.0 0.00 0.05 0.05 54 1005.9
20260505010049 61 109 0.0 0.0 0.00 0.05 0.05 55 1005.8
20260505004544 61 77 0.0 0.0 0.00 0.05 0.05 55 1005.7
20260505003044 60 83 0.0 0.0 0.00 0.05 0.05 57 1005.7
20260505001545 61 83 0.0 0.0 0.00 0.05 0.05 57 1005.6
20260505000055 63 125 0.0 0.0 0.00 0.05 0.05 55 1005.4
20260504234541 65 125 0.0 0.0 0.00 0.05 0.05 49 1005.3
20260504233054 66 184 0.0 0.0 0.00 0.05 0.05 47 1005.0
20260504231639 67 191 0.0 0.0 0.00 0.05 0.05 46 1005.0
20260504230039 67 160 0.0 0.0 0.00 0.05 0.05 46 1004.7
20260504224541 67 204 0.0 0.0 0.00 0.05 0.05 46 1004.6
20260504223037 67 108 0.0 0.0 0.00 0.05 0.05 47 1004.5
20260504221537 67 86 0.0 0.0 0.00 0.05 0.05 46 1004.5
20260504220036 69 158 0.0 0.0 0.00 0.05 0.05 45 1004.5
20260504214532 69 110 0.0 0.0 0.00 0.05 0.05 46 1004.5
20260504213034 68 134 0.0 0.0 0.00 0.05 0.05 45 1004.4
20260504211530 68 199 0.0 0.0 0.00 0.05 0.05 47 1004.3
20260504210030 67 127 0.0 0.0 0.00 0.05 0.05 46 1004.3
20260504204527 67 109 0.0 6.0 0.00 0.05 0.05 47 1004.4
20260504203027 67 124 0.0 1.0 0.00 0.05 0.05 47 1004.4
20260504201523 67 236 1.0 10.0 0.00 0.05 0.05 48 1004.7
20260504200021 67 122 0.0 10.0 0.00 0.05 0.05 48 1004.9
20260504194522 66 130 0.0 0.0 0.00 0.05 0.05 52 1005.1
20260504193015 64 129 0.0 0.0 0.00 0.05 0.05 51 1005.4
20260504191518 65 274 0.0 0.0 0.00 0.05 0.05 53 1005.7
20260504190009 63 106 0.0 0.0 0.00 0.05 0.05 55 1005.8
20260504184505 62 148 0.0 0.0 0.00 0.05 0.05 57 1006.3
20260504183004 60 137 0.0 0.0 0.00 0.05 0.05 58 1006.5
20260504181606 61 177 0.0 0.0 0.00 0.05 0.05 57 1006.8
20260504180058 60 118 0.0 8.0 0.00 0.05 0.05 57 1007.0
20260504174556 59 121 0.0 6.0 0.00 0.05 0.05 58 1007.3
20260504173054 59 153 0.0 0.0 0.00 0.05 0.05 58 1007.7
20260504171553 57 115 0.0 0.0 0.00 0.05 0.05 62 1007.8